Jackson, KY

11:10 PM EDT on August 29, 2016 (GMT -0400)
Carroll | | Change Station

Elev 1381 ft 37.59 °N, 83.31 °W | Updated 17 minutes ago

Clear
Clear
71 °F
Feels Like 71 °F
N
0
Wind Variable Wind from North

Today
High -- | Low -- °F
--% Chance of Precip.
Yesterday
High -- | Low -- °F
Precip. -- in
Pressure 30.14 in
Visibility 10.0 miles
Clouds Clear
Dew Point 67 °F
Humidity 87%
Rainfall 0.38 in
Snow Depth Not available.
7:01 AM 8:06 PM
Waning Crescent, 5% visible
METAR KJKL 300253Z AUTO 00000KT 10SM CLR 22/19 A3018 RMK AO2 SLP204 T02170194 50005
Pressure 30.14 in
Visibility 10.0 miles
Clouds Clear
Dew Point 67 °F
Humidity 87%
Rainfall 0.38 in
Snow Depth Not available.
7:01 AM 8:06 PM
Waning Crescent, 5% visible
METAR KJKL 300253Z AUTO 00000KT 10SM CLR 22/19 A3018 RMK AO2 SLP204 T02170194 50005

10-Day Weather Forecast

Almanac

Astronomy

Aug. 29, 2016 Rise Set
Actual Time
Civil Twilight
Nautical Twilight
Astronomical Twilight
Moon
Length of Visible Light
Length of Day
Tomorrow will be .
, % of the Moon is Illuminated

Today's Extremes

State Highs State Lows

Community

WunderPhotos

Upload Photos

1,935,752 photos uploaded!

WunderBlog® & News

Nearby

Air Quality

  Air Quality AQ Index Pollutant
Not available.

Snow Depth

Station Depth Elevation

Earthquake Activity

City Distance Mag. Time & Date
Minimum magnitude displayed is 2.5.

Coastal Water Temperatures

Place Temperature

Stations

Nearby Weather Stations

Station Location Temp. Windchill Dew Point Humidity Wind Precip. Elev Updated Type
                   

Watches & Warnings

There are currently no watches in effect.